Location: Bennemühlen
(52.5740°N, 9.7135°E)
Time: 16:46:24
(UTC+00:00)

SR - Pass Details

Date: 26 February 2026
Orbit: 572 x 848 km, 66.7° (Epoch: 8 March)

Event Time Altitude Azimuth Distance (km) Brightness Sun altitude
Exits shadow 04:06:26 27° 319° (NW) 1,222 ? -20.2°
Maximum altitude 04:06:53 27° 329° (NNW) 1,214 ? -20.1°
Drops below altitude 10° 04:10:55 10° 28° (NNE) 2,092 ? -19.5°
Sets 04:13:38 0° 41° (NE) 3,061 ? -19.1°
